SL-14 DEB, 47078

Orbit data source: Space-Track

SL-14 DEB, 47078 is space debris in LEO originally from a launch on Thu, 15 Aug 1991 UTC launched from the Plesetsk Missile And Space Complex (PKMTR). Debris objects in space refer to the collection of defunct objects orbiting the Earth. Examples of debris include non-operational satellites, rocket bodies, and fragments generated from explosions, collisions, or faulty payload assembly.

Loading next visibility...
SL-14 DEB details
Identifier
47078, 1991-056DC
Orbit
LEO
Last TLE update1 week ago
Origin
Flag of CISRosgidromet (CIS)
ManufacturerUnknown
MissionSpacecraft
Bus & MotorUnknown
MassUnknown
Launch date (UTC)
1991-08-15 (33 years ago)
Launch vehicleUnknown
Launch site
Plesetsk Missile And Space Complex (PKMTR)
Object type
Payload
Rocket body
Debris
Shape & HBRUnknown
Radar Cross SectionSmall (<0.1 m²)

Expand to show TLE details & history

TLE from 1 week ago
0 SL-14 DEB
1 47078U 91056DC  24351.84124157  .00001574  00000-0  33821-2 0  9990
2 47078  82.5571 143.7998 0046897 243.3448 116.2874 13.28879526199806
Epoch: 2024-12-16T20:11Z
Definitive object data (Epoch: 2024-12-16T20:11:23.271Z)
Latitude-0.00007°
Longitude114.99445°
Altitude1,169.59 km
Speed7.261 km/s
True Right ascension09h 35m 11s
True Declination0° 00' 00"
Sunlit
Object was in daylight at TLE epoch
Visualization TLE readout
Latitude-63.3564°
Longitude92.98492°
Altitude1,167.165 km
Speed7.273 km/s
Apparent Right ascension03h 07m 25s
Apparent Declination-67° 15' 12"
Sunlit
Object is in daylight
Visualization observer readout
Local Sidereal Time12:19:37
Azimuth206.308° SW
Elevation-54.323°
Doppler factor1
Orbital elements
Apogee altitude1,183.517 km
Perigee altitude1,112.924 km
Semi-major axis7,526.357 km
Eccentricity0.0046897
Inclination82.5571°
RAAN143.7998°
Arg. of periapsis243.3448°
True anomaly116.76797°
Mean anomaly116.2874°
Eccentric anomaly116.52781°
Mean motion3.32404 °/min
BSTAR0.0033821
Orbital period108.3 mins
Loading maneuver chart data...
Loading historical data...
Loading historical data...
Loading historical data...
Loading historical data...
Loading historical data...
Loading historical data...
Loading historical data...

SL-14 DEB Visibility forecast

Observer location: undefined°, undefined

Span
Click to sort rows by Start time (UTC) header in descending order
Start Az.
Max El. time (UTC)
Max El. Az.
Max El.
End time (UTC)
End Az.
6 mins2024-12-26 19:20:01.089Z36.964° NE2024-12-26 19:23:01.089Z63.115° ENE13.376°2024-12-26 19:26:01.089Z89.356° E
12 mins2024-12-26 21:08:01.089Z354.737° N2024-12-26 21:13:01.089Z32.38° NE44.611°2024-12-26 21:20:01.089Z171.422° S
6 mins2024-12-26 22:59:01.089Z304.135° NW2024-12-26 23:02:01.089Z276.379° WNW14.629°2024-12-26 23:05:01.089Z250.143° W
11 mins2024-12-27 09:17:01.089Z153.544° SSE2024-12-27 09:22:01.089Z91.713° ESE35.704°2024-12-27 09:28:01.089Z22.528° NE
10 mins2024-12-27 11:07:01.089Z236.849° WSW2024-12-27 11:11:01.089Z280.64° WNW27.633°2024-12-27 11:17:01.089Z344.935° N
|